Time,TemperatureF,DewpointF,PressureIn,WindDirection,WindDirectionDegrees,WindSpeedMPH,WindSpeedGustMPH,Humidity,HourlyPrecipIn,Conditions,Clouds,dailyrainin,SoftwareType,DateUTC
2013-12-01 00:01:00,31.3,9.8,29.53,NW,314,0.0,0.0,40,0.00,,---,0.00,VWS V14.01,2013-12-01 05:01:00,
2013-12-01 00:03:00,31.3,9.8,29.53,NW,315,0.0,0.0,40,0.00,,---,0.00,VWS V14.01,2013-12-01 05:03:00,
2013-12-01 00:08:00,31.3,9.8,29.53,NW,315,0.0,0.0,40,0.00,,---,0.00,VWS V14.01,2013-12-01 05:08:00,
2013-12-01 00:13:00,31.3,9.8,29.50,NW,314,0.0,0.0,40,0.00,,---,0.00,VWS V14.01,2013-12-01 05:13:00,
2013-12-01 00:15:00,31.5,9.9,29.50,NW,315,0.0,0.0,40,0.00,,---,0.00,VWS V14.01,2013-12-01 05:15:00,
2013-12-01 00:18:00,31.5,9.9,29.50,NW,314,0.0,0.0,40,0.00,,---,0.00,VWS V14.01,2013-12-01 05:18:00,
2013-12-01 00:22:00,31.5,9.9,29.50,NW,315,0.0,0.0,40,0.00,,---,0.00,VWS V14.01,2013-12-01 05:22:00,
2013-12-01 00:27:00,31.6,10.6,29.50,NW,315,0.0,0.0,41,0.00,,---,0.00,VWS V14.01,2013-12-01 05:27:00,
2013-12-01 00:32:00,31.8,10.8,29.50,NW,315,0.0,0.0,41,0.00,,---,0.00,VWS V14.01,2013-12-01 05:32:00,
2013-12-01 00:37:00,31.8,10.8,29.50,NW,315,0.0,0.0,41,0.00,,---,0.00,VWS V14.01,2013-12-01 05:37:00,
2013-12-01 00:43:00,32.2,11.1,29.50,NW,315,0.0,0.0,41,0.00,,---,0.00,VWS V14.01,2013-12-01 05:43:00,
2013-12-01 00:48:00,32.0,11.0,29.50,NW,315,0.0,0.0,41,0.00,,---,0.00,VWS V14.01,2013-12-01 05:48:00,
2013-12-01 00:53:00,32.0,11.0,29.50,NW,316,0.0,0.0,41,0.00,,---,0.00,VWS V14.01,2013-12-01 05:53:00,
2013-12-01 00:58:00,31.8,10.8,29.50,NW,316,0.0,0.0,41,0.00,,---,0.00,VWS V14.01,2013-12-01 05:58:00,
2013-12-01 01:03:00,32.0,11.5,29.50,NW,316,0.0,0.0,42,0.00,,---,0.00,VWS V14.01,2013-12-01 06:03:00,
2013-12-01 01:08:00,32.2,11.7,29.50,NW,315,0.0,0.0,42,0.00,,---,0.00,VWS V14.01,2013-12-01 06:08:00,
2013-12-01 01:13:00,32.4,11.9,29.47,NW,316,0.0,0.0,42,0.00,,---,0.00,VWS V14.01,2013-12-01 06:13:00,
2013-12-01 01:18:00,32.5,12.0,29.47,NW,316,0.0,0.0,42,0.00,,---,0.00,VWS V14.01,2013-12-01 06:18:00,
2013-12-01 01:23:00,32.5,12.0,29.47,NW,315,0.0,0.0,42,0.00,,---,0.00,VWS V14.01,2013-12-01 06:23:00,
2013-12-01 01:29:00,32.5,12.0,29.47,NW,315,0.0,0.0,42,0.00,,---,0.00,VWS V14.01,2013-12-01 06:29:00,
2013-12-01 01:34:00,32.4,11.9,29.47,NW,315,0.0,0.0,42,0.00,,---,0.00,VWS V14.01,2013-12-01 06:34:00,
2013-12-01 01:39:00,32.4,11.9,29.47,NW,316,0.0,0.0,42,0.00,,---,0.00,VWS V14.01,2013-12-01 06:39:00,
2013-12-01 01:45:00,32.4,11.9,29.47,NW,316,0.0,0.0,42,0.00,,---,0.00,VWS V14.01,2013-12-01 06:45:00,
2013-12-01 01:50:00,32.5,12.0,29.47,NW,316,0.0,0.0,42,0.00,,---,0.00,VWS V14.01,2013-12-01 06:50:00,
2013-12-01 01:56:00,32.5,12.5,29.47,NW,316,0.0,0.0,43,0.00,,---,0.00,VWS V14.01,2013-12-01 06:56:00,
2013-12-01 02:01:00,32.5,12.5,29.47,NW,316,0.0,0.0,43,0.00,,---,0.00,VWS V14.01,2013-12-01 07:01:00,
2013-12-01 02:06:00,32.5,12.5,29.47,NW,316,0.0,0.0,43,0.00,,---,0.00,VWS V14.01,2013-12-01 07:06:00,
2013-12-01 02:11:00,32.5,13.1,29.47,NW,317,0.0,0.0,44,0.00,,---,0.00,VWS V14.01,2013-12-01 07:11:00,
2013-12-01 02:16:00,32.7,13.2,29.47,NW,317,0.0,0.0,44,0.00,,---,0.00,VWS V14.01,2013-12-01 07:16:00,
2013-12-01 02:21:00,32.5,13.1,29.47,NW,318,0.0,0.0,44,0.00,,---,0.00,VWS V14.01,2013-12-01 07:21:00,
2013-12-01 02:26:00,32.5,13.1,29.47,NW,317,0.0,0.0,44,0.00,,---,0.00,VWS V14.01,2013-12-01 07:26:00,
2013-12-01 02:31:00,32.7,13.2,29.47,NW,319,0.0,0.0,44,0.00,,---,0.00,VWS V14.01,2013-12-01 07:31:00,
2013-12-01 02:36:00,32.7,13.7,29.47,NW,319,0.0,0.0,45,0.08,,---,0.08,VWS V14.01,2013-12-01 07:36:00,
2013-12-01 02:41:00,32.7,13.7,29.47,NW,320,0.0,0.0,45,0.08,,---,0.08,VWS V14.01,2013-12-01 07:41:00,
2013-12-01 02:49:00,32.9,14.4,29.47,NW,321,0.0,0.0,46,0.08,,---,0.08,VWS V14.01,2013-12-01 07:49:00,
2013-12-01 02:54:00,32.9,14.4,29.47,NW,322,0.0,0.0,46,0.08,,---,0.08,VWS V14.01,2013-12-01 07:54:00,
2013-12-01 02:59:00,32.9,14.4,29.44,NW,322,0.0,0.0,46,0.08,,---,0.08,VWS V14.01,2013-12-01 07:59:00,
2013-12-01 03:04:00,32.9,13.9,29.44,NW,323,0.0,0.0,45,0.08,,---,0.08,VWS V14.01,2013-12-01 08:04:00,
2013-12-01 03:09:00,33.1,14.1,29.44,NW,324,0.0,0.0,45,0.08,,---,0.08,VWS V14.01,2013-12-01 08:09:00,
2013-12-01 03:14:00,32.9,13.9,29.44,NW,326,0.0,0.0,45,0.08,,---,0.08,VWS V14.01,2013-12-01 08:14:00,
2013-12-01 03:19:00,32.7,14.2,29.44,NNW,328,0.0,0.0,46,0.08,,---,0.08,VWS V14.01,2013-12-01 08:19:00,
2013-12-01 03:24:00,32.7,14.2,29.44,NNW,330,0.0,0.0,46,0.08,,---,0.08,VWS V14.01,2013-12-01 08:24:00,
2013-12-01 03:29:00,32.5,14.6,29.44,NNW,330,0.0,0.0,47,0.08,,---,0.08,VWS V14.01,2013-12-01 08:29:00,
2013-12-01 03:34:00,32.5,15.0,29.44,NNW,330,0.0,0.0,48,0.08,,---,0.08,VWS V14.01,2013-12-01 08:34:00,
2013-12-01 03:39:00,32.5,15.0,29.44,NNW,329,0.0,0.0,48,0.00,,---,0.08,VWS V14.01,2013-12-01 08:39:00,
2013-12-01 03:44:00,32.7,16.1,29.44,NNW,329,0.0,0.0,50,0.00,,---,0.08,VWS V14.01,2013-12-01 08:44:00,
2013-12-01 03:49:00,32.7,16.1,29.44,NNW,330,0.0,0.0,50,0.00,,---,0.08,VWS V14.01,2013-12-01 08:49:00,
2013-12-01 03:54:00,32.7,16.1,29.44,NNW,328,0.0,0.0,50,0.00,,---,0.08,VWS V14.01,2013-12-01 08:54:00,
2013-12-01 03:59:00,32.9,16.3,29.44,NNW,329,0.0,0.0,50,0.00,,---,0.08,VWS V14.01,2013-12-01 08:59:00,
2013-12-01 04:01:00,32.9,16.3,29.44,NNW,329,0.0,0.0,50,0.00,,---,0.08,VWS V14.01,2013-12-01 09:01:00,
2013-12-01 04:06:00,32.9,16.3,29.44,NNW,328,0.0,0.0,50,0.00,,---,0.08,VWS V14.01,2013-12-01 09:06:00,
2013-12-01 04:11:00,33.1,16.5,29.44,NNW,327,0.0,0.0,50,0.00,,---,0.08,VWS V14.01,2013-12-01 09:11:00,
2013-12-01 04:16:00,33.3,16.6,29.41,NNW,327,0.0,0.0,50,0.00,,---,0.08,VWS V14.01,2013-12-01 09:16:00,
2013-12-01 04:21:00,33.4,16.8,29.41,NNW,327,0.0,0.0,50,0.00,,---,0.08,VWS V14.01,2013-12-01 09:21:00,
2013-12-01 04:26:00,33.6,17.4,29.41,NW,326,0.0,0.0,51,0.00,,---,0.08,VWS V14.01,2013-12-01 09:26:00,
2013-12-01 04:31:00,33.6,17.4,29.41,NW,325,0.0,0.0,51,0.00,,---,0.08,VWS V14.01,2013-12-01 09:31:00,
2013-12-01 04:36:00,33.6,17.4,29.41,NW,325,0.0,0.0,51,0.00,,---,0.08,VWS V14.01,2013-12-01 09:36:00,
2013-12-01 04:41:00,33.4,17.3,29.41,NW,324,0.0,0.0,51,0.00,,---,0.08,VWS V14.01,2013-12-01 09:41:00,
2013-12-01 04:46:00,33.6,17.4,29.41,NW,324,0.0,0.0,51,0.00,,---,0.08,VWS V14.01,2013-12-01 09:46:00,
2013-12-01 04:51:00,33.6,17.4,29.41,NW,324,0.0,0.0,51,0.00,,---,0.08,VWS V14.01,2013-12-01 09:51:00,
2013-12-01 04:56:00,33.6,17.4,29.41,NW,324,0.0,0.0,51,0.00,,---,0.08,VWS V14.01,2013-12-01 09:56:00,
2013-12-01 05:01:00,33.6,17.4,29.41,NW,324,0.0,0.0,51,0.00,,---,0.08,VWS V14.01,2013-12-01 10:01:00,
2013-12-01 05:06:00,33.4,17.3,29.41,NW,326,0.0,0.0,51,0.00,,---,0.08,VWS V14.01,2013-12-01 10:06:00,
2013-12-01 05:11:00,33.3,17.1,29.41,NW,325,0.0,0.0,51,0.00,,---,0.08,VWS V14.01,2013-12-01 10:11:00,
2013-12-01 05:16:00,33.3,17.1,29.41,NW,323,0.0,0.0,51,0.00,,---,0.08,VWS V14.01,2013-12-01 10:16:00,
2013-12-01 05:21:00,33.3,17.1,29.41,NW,324,0.0,0.0,51,0.00,,---,0.08,VWS V14.01,2013-12-01 10:21:00,
2013-12-01 05:26:00,33.3,17.1,29.41,NW,323,0.0,0.0,51,0.00,,---,0.08,VWS V14.01,2013-12-01 10:26:00,
2013-12-01 05:31:00,33.4,17.3,29.38,NW,323,0.0,0.0,51,0.00,,---,0.08,VWS V14.01,2013-12-01 10:31:00,
2013-12-01 05:36:00,33.4,17.3,29.38,NW,323,0.0,0.0,51,0.00,,---,0.08,VWS V14.01,2013-12-01 10:36:00,
2013-12-01 05:41:00,33.4,17.3,29.38,NW,323,0.0,0.0,51,0.00,,---,0.08,VWS V14.01,2013-12-01 10:41:00,
2013-12-01 05:46:00,33.4,17.3,29.38,NW,325,0.0,0.0,51,0.00,,---,0.08,VWS V14.01,2013-12-01 10:46:00,
2013-12-01 05:51:00,33.3,17.1,29.38,NW,325,0.0,0.0,51,0.00,,---,0.08,VWS V14.01,2013-12-01 10:51:00,
2013-12-01 05:56:00,33.3,17.1,29.38,NNW,327,0.0,0.0,51,0.00,,---,0.08,VWS V14.01,2013-12-01 10:56:00,
2013-12-01 06:01:00,33.1,16.9,29.38,NNW,328,0.0,0.0,51,0.00,,---,0.08,VWS V14.01,2013-12-01 11:01:00,
2013-12-01 06:06:00,32.7,16.6,29.38,NNW,327,0.0,0.0,51,0.00,,---,0.08,VWS V14.01,2013-12-01 11:06:00,
2013-12-01 06:11:00,32.7,16.6,29.38,NW,324,0.0,0.0,51,0.00,,---,0.08,VWS V14.01,2013-12-01 11:11:00,
2013-12-01 06:16:00,32.5,16.4,29.38,NW,322,0.0,0.0,51,0.00,,---,0.08,VWS V14.01,2013-12-01 11:16:00,
2013-12-01 06:21:00,32.7,16.6,29.38,NW,321,0.0,0.0,51,0.00,,---,0.08,VWS V14.01,2013-12-01 11:21:00,
2013-12-01 06:26:00,32.7,16.6,29.38,NW,321,0.0,0.0,51,0.00,,---,0.08,VWS V14.01,2013-12-01 11:26:00,
2013-12-01 06:31:00,32.9,16.8,29.38,NW,322,0.0,0.0,51,0.00,,---,0.08,VWS V14.01,2013-12-01 11:31:00,
2013-12-01 06:36:00,32.7,16.6,29.38,NW,323,0.0,0.0,51,0.00,,---,0.08,VWS V14.01,2013-12-01 11:36:00,
2013-12-01 06:41:00,32.7,16.6,29.38,NW,324,0.0,0.0,51,0.00,,---,0.08,VWS V14.01,2013-12-01 11:41:00,
2013-12-01 06:46:00,32.5,16.4,29.38,NW,325,0.0,0.0,51,0.00,,---,0.08,VWS V14.01,2013-12-01 11:46:00,
2013-12-01 06:51:00,32.5,16.4,29.38,NW,324,0.0,0.0,51,0.00,,---,0.08,VWS V14.01,2013-12-01 11:51:00,
2013-12-01 06:56:00,32.5,16.4,29.38,NW,322,0.0,0.0,51,0.00,,---,0.08,VWS V14.01,2013-12-01 11:56:00,
2013-12-01 07:01:00,32.5,16.9,29.38,NW,321,0.0,0.0,52,0.00,,---,0.08,VWS V14.01,2013-12-01 12:01:00,
2013-12-01 07:06:00,32.5,16.9,29.38,NW,323,0.0,0.0,52,0.00,,---,0.08,VWS V14.01,2013-12-01 12:06:00,
2013-12-01 07:11:00,32.7,17.0,29.38,NW,322,0.0,0.0,52,0.00,,---,0.08,VWS V14.01,2013-12-01 12:11:00,
2013-12-01 07:16:00,32.7,17.0,29.38,NW,322,0.0,0.0,52,0.00,,---,0.08,VWS V14.01,2013-12-01 12:16:00,
2013-12-01 07:21:00,32.7,17.0,29.38,NW,321,0.0,0.0,52,0.00,,---,0.08,VWS V14.01,2013-12-01 12:21:00,
2013-12-01 07:26:00,32.9,17.2,29.38,NW,321,0.0,0.0,52,0.00,,---,0.08,VWS V14.01,2013-12-01 12:26:00,
2013-12-01 07:31:00,33.1,17.8,29.38,NW,322,0.0,0.0,53,0.00,,---,0.08,VWS V14.01,2013-12-01 12:31:00,
2013-12-01 07:36:00,33.3,18.0,29.38,NW,320,0.0,0.0,53,0.00,,---,0.08,VWS V14.01,2013-12-01 12:36:00,
2013-12-01 07:41:00,33.3,18.0,29.38,NW,320,0.0,0.0,53,0.00,,---,0.08,VWS V14.01,2013-12-01 12:41:00,
2013-12-01 07:46:00,33.3,18.0,29.38,NW,319,0.0,0.0,53,0.00,,---,0.08,VWS V14.01,2013-12-01 12:46:00,
2013-12-01 07:51:00,33.6,18.8,29.38,NW,316,0.0,0.0,54,0.00,,---,0.08,VWS V14.01,2013-12-01 12:51:00,
2013-12-01 07:56:00,33.6,18.8,29.38,NW,320,0.0,0.0,54,0.00,,---,0.08,VWS V14.01,2013-12-01 12:56:00,
2013-12-01 08:01:00,33.6,18.8,29.38,NW,325,0.0,0.0,54,0.00,,---,0.08,VWS V14.01,2013-12-01 13:01:00,
2013-12-01 08:06:00,33.8,18.9,29.38,NW,325,0.0,0.0,54,0.00,,---,0.08,VWS V14.01,2013-12-01 13:06:00,
2013-12-01 08:11:00,33.8,18.9,29.38,NW,326,0.0,0.0,54,0.00,,---,0.08,VWS V14.01,2013-12-01 13:11:00,
2013-12-01 08:16:00,33.8,18.9,29.38,NNW,327,0.0,0.0,54,0.00,,---,0.08,VWS V14.01,2013-12-01 13:16:00,
2013-12-01 08:21:00,34.0,19.1,29.38,NNW,327,0.0,0.0,54,0.00,,---,0.08,VWS V14.01,2013-12-01 13:21:00,
2013-12-01 08:26:00,34.2,19.3,29.38,NW,326,0.0,0.0,54,0.00,,---,0.08,VWS V14.01,2013-12-01 13:26:00,
2013-12-01 08:31:00,34.3,19.4,29.38,NW,323,0.0,0.0,54,0.00,,---,0.08,VWS V14.01,2013-12-01 13:31:00,
2013-12-01 08:36:00,34.3,19.4,29.38,NW,321,0.0,0.0,54,0.00,,---,0.08,VWS V14.01,2013-12-01 13:36:00,
2013-12-01 08:41:00,34.5,19.6,29.38,NW,312,0.0,0.0,54,0.00,,---,0.08,VWS V14.01,2013-12-01 13:41:00,
2013-12-01 08:46:00,35.1,20.1,29.35,NW,313,0.0,0.0,54,0.00,,---,0.08,VWS V14.01,2013-12-01 13:46:00,
2013-12-01 08:51:00,35.4,19.6,29.35,NW,313,0.0,0.0,52,0.00,,---,0.08,VWS V14.01,2013-12-01 13:51:00,
2013-12-01 08:56:00,35.8,19.9,29.35,NW,320,0.0,0.0,52,0.00,,---,0.08,VWS V14.01,2013-12-01 13:56:00,
2013-12-01 09:01:00,36.0,20.1,29.35,NW,325,0.0,0.0,52,0.00,,---,0.08,VWS V14.01,2013-12-01 14:01:00,
2013-12-01 09:06:00,36.1,20.2,29.35,NW,326,0.0,0.0,52,0.00,,---,0.08,VWS V14.01,2013-12-01 14:06:00,
2013-12-01 09:11:00,36.1,19.8,29.35,NW,320,0.0,0.0,51,0.00,,---,0.08,VWS V14.01,2013-12-01 14:11:00,
2013-12-01 09:16:00,36.5,20.1,29.35,NW,321,0.0,0.0,51,0.00,,---,0.08,VWS V14.01,2013-12-01 14:16:00,
2013-12-01 09:21:00,36.7,19.8,29.35,NW,313,0.0,0.0,50,0.00,,---,0.08,VWS V14.01,2013-12-01 14:21:00,
2013-12-01 09:27:00,37.4,20.5,29.35,NW,316,0.0,0.0,50,0.00,,---,0.08,VWS V14.01,2013-12-01 14:27:00,
2013-12-01 09:32:00,37.8,20.8,29.35,NW,322,0.0,0.0,50,0.00,,---,0.08,VWS V14.01,2013-12-01 14:32:00,
2013-12-01 09:37:00,37.4,18.0,29.35,NW,320,0.0,0.0,45,0.00,,---,0.08,VWS V14.01,2013-12-01 14:37:00,
2013-12-01 09:42:00,37.6,18.2,29.35,NW,322,0.0,0.0,45,0.00,,---,0.08,VWS V14.01,2013-12-01 14:42:00,
2013-12-01 09:47:00,37.9,18.5,29.35,NW,321,0.0,0.0,45,0.00,,---,0.08,VWS V14.01,2013-12-01 14:47:00,
2013-12-01 09:52:00,37.9,18.5,29.35,NW,319,0.0,0.0,45,0.00,,---,0.08,VWS V14.01,2013-12-01 14:52:00,
2013-12-01 09:57:00,37.9,18.0,29.35,NW,314,0.0,0.0,44,0.00,,---,0.08,VWS V14.01,2013-12-01 14:57:00,
2013-12-01 10:03:00,38.1,18.1,29.35,NW,315,0.0,0.0,44,0.00,,---,0.08,VWS V14.01,2013-12-01 15:03:00,
2013-12-01 10:08:00,38.5,18.5,29.35,NW,314,0.0,0.0,44,0.00,,---,0.08,VWS V14.01,2013-12-01 15:08:00,
2013-12-01 10:13:00,38.7,18.6,29.35,NW,314,0.0,0.0,44,0.00,,---,0.08,VWS V14.01,2013-12-01 15:13:00,
2013-12-01 10:18:00,38.8,18.3,29.35,NW,313,0.0,0.0,43,0.00,,---,0.08,VWS V14.01,2013-12-01 15:18:00,
2013-12-01 10:23:00,39.2,18.6,29.35,NW,313,0.0,0.0,43,0.00,,---,0.08,VWS V14.01,2013-12-01 15:23:00,
2013-12-01 10:28:00,39.4,18.2,29.32,NW,313,0.0,0.0,42,0.00,,---,0.08,VWS V14.01,2013-12-01 15:28:00,
2013-12-01 10:33:00,39.7,18.5,29.32,NW,314,0.0,0.0,42,0.00,,---,0.08,VWS V14.01,2013-12-01 15:33:00,
2013-12-01 10:38:00,39.7,18.5,29.32,NW,313,0.0,0.0,42,0.00,,---,0.08,VWS V14.01,2013-12-01 15:38:00,
2013-12-01 10:43:00,40.1,18.3,29.32,NW,312,0.0,0.0,41,0.00,,---,0.08,VWS V14.01,2013-12-01 15:43:00,
2013-12-01 10:49:00,40.1,17.7,29.32,NW,318,0.0,0.0,40,0.00,,---,0.08,VWS V14.01,2013-12-01 15:49:00,
2013-12-01 10:54:00,40.1,17.7,29.32,NW,318,0.0,0.0,40,0.00,,---,0.08,VWS V14.01,2013-12-01 15:54:00,
2013-12-01 10:59:00,39.9,17.0,29.32,NW,321,0.0,0.0,39,0.00,,---,0.08,VWS V14.01,2013-12-01 15:59:00,
2013-12-01 11:04:00,40.1,17.1,29.32,NW,313,0.0,0.0,39,0.00,,---,0.08,VWS V14.01,2013-12-01 16:04:00,
2013-12-01 11:09:00,40.5,17.5,29.32,NW,318,0.0,0.0,39,0.00,,---,0.08,VWS V14.01,2013-12-01 16:09:00,
2013-12-01 11:14:00,40.8,17.8,29.32,NW,319,0.0,0.0,39,0.00,,---,0.08,VWS V14.01,2013-12-01 16:14:00,
2013-12-01 11:19:00,40.8,17.8,29.32,NW,319,0.0,0.0,39,0.00,,---,0.08,VWS V14.01,2013-12-01 16:19:00,
2013-12-01 11:24:00,41.0,18.0,29.32,NW,317,0.0,0.0,39,0.00,,---,0.08,VWS V14.01,2013-12-01 16:24:00,
2013-12-01 11:29:00,41.0,17.4,29.29,NW,315,0.0,0.0,38,0.00,,---,0.08,VWS V14.01,2013-12-01 16:29:00,
2013-12-01 11:34:00,41.2,17.5,29.29,NW,314,0.0,0.0,38,0.00,,---,0.08,VWS V14.01,2013-12-01 16:34:00,
2013-12-01 11:39:00,41.5,15.9,29.29,NW,313,0.0,0.0,35,0.00,,---,0.08,VWS V14.01,2013-12-01 16:39:00,
2013-12-01 11:44:00,41.7,14.8,29.29,NW,314,0.0,0.0,33,0.04,,---,0.12,VWS V14.01,2013-12-01 16:44:00,
2013-12-01 11:49:00,42.3,15.2,29.29,NW,316,0.0,0.0,33,0.04,,---,0.12,VWS V14.01,2013-12-01 16:49:00,
2013-12-01 11:54:00,42.4,14.7,29.29,NW,312,0.0,0.0,32,0.04,,---,0.12,VWS V14.01,2013-12-01 16:54:00,
2013-12-01 11:59:00,42.8,15.0,29.29,NW,314,0.0,0.0,32,0.04,,---,0.12,VWS V14.01,2013-12-01 16:59:00,
2013-12-01 12:04:00,43.2,15.3,29.29,NW,312,0.0,0.0,32,0.04,,---,0.12,VWS V14.01,2013-12-01 17:04:00,
2013-12-01 12:09:00,43.5,15.6,29.29,NW,313,0.0,0.0,32,0.04,,---,0.12,VWS V14.01,2013-12-01 17:09:00,
2013-12-01 12:14:00,43.5,14.2,29.26,NW,314,0.0,0.0,30,0.04,,---,0.12,VWS V14.01,2013-12-01 17:14:00,
2013-12-01 12:19:00,43.5,14.2,29.26,NW,313,0.0,0.0,30,0.04,,---,0.12,VWS V14.01,2013-12-01 17:19:00,
2013-12-01 12:24:00,43.9,13.7,29.26,NW,312,0.0,0.0,29,0.04,,---,0.12,VWS V14.01,2013-12-01 17:24:00,
2013-12-01 12:29:00,44.4,14.9,29.26,NW,312,0.0,0.0,30,0.04,,---,0.12,VWS V14.01,2013-12-01 17:29:00,
2013-12-01 12:34:00,44.8,14.5,29.26,NW,314,0.0,0.0,29,0.04,,---,0.12,VWS V14.01,2013-12-01 17:34:00,
2013-12-01 12:39:00,44.8,14.5,29.26,NW,316,0.0,0.0,29,0.04,,---,0.12,VWS V14.01,2013-12-01 17:39:00,
2013-12-01 12:44:00,44.8,14.5,29.26,NW,316,0.0,0.0,29,0.00,,---,0.12,VWS V14.01,2013-12-01 17:44:00,
2013-12-01 12:49:00,44.8,14.5,29.26,NW,318,0.0,0.0,29,0.00,,---,0.12,VWS V14.01,2013-12-01 17:49:00,
2013-12-01 12:54:00,45.0,15.4,29.26,NW,315,0.0,0.0,30,0.00,,---,0.12,VWS V14.01,2013-12-01 17:54:00,
2013-12-01 12:59:00,45.1,15.6,29.26,NW,313,0.0,0.0,30,0.00,,---,0.12,VWS V14.01,2013-12-01 17:59:00,
2013-12-01 13:04:00,45.1,15.6,29.26,NW,313,0.0,0.0,30,0.00,,---,0.12,VWS V14.01,2013-12-01 18:04:00,
2013-12-01 13:09:00,45.1,15.6,29.26,NW,313,0.0,0.0,30,0.00,,---,0.12,VWS V14.01,2013-12-01 18:09:00,
2013-12-01 13:14:00,45.3,15.7,29.23,NW,313,0.0,0.0,30,0.00,,---,0.12,VWS V14.01,2013-12-01 18:14:00,
2013-12-01 13:19:00,45.5,15.9,29.23,NW,314,0.0,0.0,30,0.00,,---,0.12,VWS V14.01,2013-12-01 18:19:00,
2013-12-01 13:24:00,45.7,15.3,29.23,NW,314,0.0,0.0,29,0.00,,---,0.12,VWS V14.01,2013-12-01 18:24:00,
2013-12-01 13:29:00,45.9,15.4,29.23,NW,315,0.0,0.0,29,0.00,,---,0.12,VWS V14.01,2013-12-01 18:29:00,
2013-12-01 13:34:00,45.9,15.4,29.23,NW,316,0.0,0.0,29,0.00,,---,0.12,VWS V14.01,2013-12-01 18:34:00,
2013-12-01 13:39:00,45.5,15.1,29.23,NW,315,0.0,0.0,29,0.00,,---,0.12,VWS V14.01,2013-12-01 18:39:00,
2013-12-01 13:44:00,45.5,15.1,29.23,NW,316,0.0,0.0,29,0.00,,---,0.12,VWS V14.01,2013-12-01 18:44:00,
2013-12-01 13:49:00,45.5,15.1,29.23,NW,313,0.0,0.0,29,0.00,,---,0.12,VWS V14.01,2013-12-01 18:49:00,
2013-12-01 13:54:00,45.5,15.1,29.23,NW,315,0.0,0.0,29,0.00,,---,0.12,VWS V14.01,2013-12-01 18:54:00,
2013-12-01 13:59:00,45.3,14.9,29.23,NW,316,0.0,0.0,29,0.00,,---,0.12,VWS V14.01,2013-12-01 18:59:00,
2013-12-01 14:04:00,45.3,14.9,29.23,NW,315,0.0,0.0,29,0.00,,---,0.12,VWS V14.01,2013-12-01 19:04:00,
2013-12-01 14:09:00,45.1,14.8,29.23,NW,316,0.0,0.0,29,0.00,,---,0.12,VWS V14.01,2013-12-01 19:09:00,
2013-12-01 14:14:00,45.0,15.4,29.23,NW,315,0.0,0.0,30,0.00,,---,0.12,VWS V14.01,2013-12-01 19:14:00,
2013-12-01 14:19:00,45.0,15.4,29.23,NW,314,0.0,0.0,30,0.00,,---,0.12,VWS V14.01,2013-12-01 19:19:00,
2013-12-01 14:24:00,44.8,15.3,29.23,NW,315,0.0,0.0,30,0.00,,---,0.12,VWS V14.01,2013-12-01 19:24:00,
2013-12-01 14:29:00,44.8,15.3,29.23,NW,313,0.0,0.0,30,0.00,,---,0.12,VWS V14.01,2013-12-01 19:29:00,
2013-12-01 14:34:00,44.6,15.1,29.23,NW,314,0.0,0.0,30,0.00,,---,0.12,VWS V14.01,2013-12-01 19:34:00,
2013-12-01 14:39:00,44.6,15.9,29.23,NW,313,0.0,0.0,31,0.00,,---,0.12,VWS V14.01,2013-12-01 19:39:00,
2013-12-01 14:42:00,44.6,15.1,29.23,NW,314,0.0,0.0,30,0.00,,---,0.12,VWS V14.01,2013-12-01 19:42:00,
2013-12-01 14:47:00,44.6,15.1,29.23,NW,315,0.0,0.0,30,0.00,,---,0.12,VWS V14.01,2013-12-01 19:47:00,
2013-12-01 14:52:00,44.4,14.9,29.23,NW,315,0.0,0.0,30,0.00,,---,0.12,VWS V14.01,2013-12-01 19:52:00,
2013-12-01 14:57:00,44.4,14.9,29.23,NW,315,0.0,0.0,30,0.00,,---,0.12,VWS V14.01,2013-12-01 19:57:00,
2013-12-01 15:02:00,44.2,14.8,29.23,NW,315,0.0,0.0,30,0.00,,---,0.12,VWS V14.01,2013-12-01 20:02:00,
2013-12-01 15:07:00,44.1,14.6,29.23,NW,314,0.0,0.0,30,0.00,,---,0.12,VWS V14.01,2013-12-01 20:07:00,
2013-12-01 15:12:00,44.1,14.6,29.23,NW,315,0.0,0.0,30,0.00,,---,0.12,VWS V14.01,2013-12-01 20:12:00,
2013-12-01 15:17:00,43.9,14.5,29.23,NW,315,0.0,0.0,30,0.00,,---,0.12,VWS V14.01,2013-12-01 20:17:00,
2013-12-01 15:22:00,43.7,14.3,29.23,NW,315,0.0,0.0,30,0.00,,---,0.12,VWS V14.01,2013-12-01 20:22:00,
2013-12-01 15:27:00,43.5,14.9,29.23,NW,315,0.0,0.0,31,0.00,,---,0.12,VWS V14.01,2013-12-01 20:27:00,
2013-12-01 15:32:00,43.3,14.8,29.23,NW,316,0.0,0.0,31,0.00,,---,0.12,VWS V14.01,2013-12-01 20:32:00,
2013-12-01 15:37:00,43.2,14.6,29.23,NW,316,0.0,0.0,31,0.00,,---,0.12,VWS V14.01,2013-12-01 20:37:00,
2013-12-01 15:42:00,43.0,14.4,29.23,NW,316,0.0,0.0,31,0.00,,---,0.12,VWS V14.01,2013-12-01 20:42:00,
2013-12-01 15:47:00,42.6,14.8,29.23,NW,317,0.0,0.0,32,0.00,,---,0.12,VWS V14.01,2013-12-01 20:47:00,
2013-12-01 15:52:00,42.4,14.7,29.23,NW,316,0.0,0.0,32,0.00,,---,0.12,VWS V14.01,2013-12-01 20:52:00,
2013-12-01 15:57:00,42.3,15.2,29.23,NW,315,0.0,0.0,33,0.00,,---,0.12,VWS V14.01,2013-12-01 20:57:00,
2013-12-01 16:02:00,42.1,15.1,29.23,NW,315,0.0,0.0,33,0.00,,---,0.12,VWS V14.01,2013-12-01 21:02:00,
2013-12-01 16:07:00,41.9,15.6,29.23,NW,316,0.0,0.0,34,0.00,,---,0.12,VWS V14.01,2013-12-01 21:07:00,
2013-12-01 16:12:00,41.7,15.4,29.23,NW,315,0.0,0.0,34,0.00,,---,0.12,VWS V14.01,2013-12-01 21:12:00,
2013-12-01 16:17:00,41.5,15.3,29.23,NW,317,0.0,0.0,34,0.00,,---,0.12,VWS V14.01,2013-12-01 21:17:00,
2013-12-01 16:22:00,41.2,15.0,29.23,NW,316,0.0,0.0,34,0.00,,---,0.12,VWS V14.01,2013-12-01 21:22:00,
2013-12-01 16:27:00,41.0,14.8,29.21,NW,315,0.0,0.0,34,0.00,,---,0.12,VWS V14.01,2013-12-01 21:27:00,
2013-12-01 16:32:00,40.6,15.1,29.21,NW,315,0.0,0.0,35,0.00,,---,0.12,VWS V14.01,2013-12-01 21:32:00,
2013-12-01 16:37:00,40.5,15.6,29.21,NW,315,0.0,0.0,36,0.00,,---,0.12,VWS V14.01,2013-12-01 21:37:00,
2013-12-01 16:42:00,40.3,15.5,29.21,NW,315,0.0,0.0,36,0.00,,---,0.12,VWS V14.01,2013-12-01 21:42:00,
2013-12-01 16:47:00,40.3,15.5,29.21,NW,315,0.0,0.0,36,0.00,,---,0.12,VWS V14.01,2013-12-01 21:47:00,
2013-12-01 16:52:00,40.1,15.3,29.21,NW,315,0.0,0.0,36,0.00,,---,0.12,VWS V14.01,2013-12-01 21:52:00,
2013-12-01 16:57:00,39.9,15.1,29.21,NW,316,0.0,0.0,36,0.00,,---,0.12,VWS V14.01,2013-12-01 21:57:00,
2013-12-01 17:02:00,39.7,15.0,29.21,NW,316,0.0,0.0,36,0.00,,---,0.12,VWS V14.01,2013-12-01 22:02:00,
2013-12-01 17:07:00,39.4,14.7,29.21,NW,314,0.0,0.0,36,0.00,,---,0.12,VWS V14.01,2013-12-01 22:07:00,
2013-12-01 17:12:00,39.4,15.3,29.21,NW,314,0.0,0.0,37,0.00,,---,0.12,VWS V14.01,2013-12-01 22:12:00,
2013-12-01 17:17:00,39.4,15.3,29.21,NW,314,0.0,0.0,37,0.00,,---,0.12,VWS V14.01,2013-12-01 22:17:00,
2013-12-01 17:22:00,39.4,15.9,29.21,NW,314,0.0,0.0,38,0.00,,---,0.12,VWS V14.01,2013-12-01 22:22:00,
2013-12-01 17:27:00,39.4,15.9,29.21,NW,314,0.0,0.0,38,0.00,,---,0.12,VWS V14.01,2013-12-01 22:27:00,
2013-12-01 17:32:00,39.4,15.9,29.21,NW,314,0.0,0.0,38,0.00,,---,0.12,VWS V14.01,2013-12-01 22:32:00,
2013-12-01 17:37:00,39.6,16.7,29.21,NW,315,0.0,0.0,39,0.00,,---,0.12,VWS V14.01,2013-12-01 22:37:00,
2013-12-01 17:42:00,39.6,16.7,29.21,NW,314,0.0,0.0,39,0.00,,---,0.12,VWS V14.01,2013-12-01 22:42:00,
2013-12-01 17:47:00,39.6,16.7,29.21,NW,314,0.0,0.0,39,0.00,,---,0.12,VWS V14.01,2013-12-01 22:47:00,
2013-12-01 17:52:00,39.6,16.7,29.21,NW,314,0.0,0.0,39,0.00,,---,0.12,VWS V14.01,2013-12-01 22:52:00,
2013-12-01 17:57:00,39.6,16.7,29.21,NW,315,0.0,0.0,39,0.00,,---,0.12,VWS V14.01,2013-12-01 22:57:00,
2013-12-01 18:02:00,39.4,16.5,29.21,NW,315,0.0,0.0,39,0.00,,---,0.12,VWS V14.01,2013-12-01 23:02:00,
2013-12-01 18:07:00,39.6,16.7,29.21,NW,314,0.0,0.0,39,0.00,,---,0.12,VWS V14.01,2013-12-01 23:07:00,
2013-12-01 18:12:00,39.7,16.8,29.21,NW,314,0.0,0.0,39,0.00,,---,0.12,VWS V14.01,2013-12-01 23:12:00,
2013-12-01 18:17:00,39.7,16.8,29.21,NW,314,0.0,0.0,39,0.00,,---,0.12,VWS V14.01,2013-12-01 23:17:00,
2013-12-01 18:22:00,39.7,16.8,29.21,NW,315,0.0,0.0,39,0.00,,---,0.12,VWS V14.01,2013-12-01 23:22:00,
2013-12-01 18:27:00,39.6,16.7,29.21,NW,315,0.0,0.0,39,0.00,,---,0.12,VWS V14.01,2013-12-01 23:27:00,
2013-12-01 18:32:00,39.4,16.5,29.21,NW,314,0.0,0.0,39,0.00,,---,0.12,VWS V14.01,2013-12-01 23:32:00,
2013-12-01 18:37:00,39.4,16.5,29.21,NW,314,0.0,0.0,39,0.00,,---,0.12,VWS V14.01,2013-12-01 23:37:00,
2013-12-01 18:42:00,39.4,16.5,29.21,NW,314,0.0,0.0,39,0.00,,---,0.12,VWS V14.01,2013-12-01 23:42:00,
2013-12-01 18:47:00,39.2,16.3,29.21,NW,314,0.0,0.0,39,0.00,,---,0.12,VWS V14.01,2013-12-01 23:47:00,
2013-12-01 18:52:00,39.2,16.3,29.21,NW,314,0.0,0.0,39,0.00,,---,0.12,VWS V14.01,2013-12-01 23:52:00,
2013-12-01 18:57:00,39.2,16.3,29.21,NW,314,0.0,0.0,39,0.00,,---,0.12,VWS V14.01,2013-12-01 23:57:00,
2013-12-01 19:02:00,39.2,16.3,29.21,NW,313,0.0,0.0,39,0.00,,---,0.12,VWS V14.01,2013-12-02 00:02:00,
2013-12-01 19:07:00,39.2,16.3,29.21,NW,314,0.0,0.0,39,0.00,,---,0.12,VWS V14.01,2013-12-02 00:07:00,
2013-12-01 19:12:00,39.4,16.5,29.21,NW,314,0.0,0.0,39,0.00,,---,0.12,VWS V14.01,2013-12-02 00:12:00,
2013-12-01 19:17:00,39.4,16.5,29.21,NW,313,0.0,0.0,39,0.00,,---,0.12,VWS V14.01,2013-12-02 00:17:00,
2013-12-01 19:22:00,39.4,15.9,29.21,NW,313,0.0,0.0,38,0.00,,---,0.12,VWS V14.01,2013-12-02 00:22:00,
2013-12-01 19:27:00,39.4,15.9,29.21,NW,313,0.0,0.0,38,0.00,,---,0.12,VWS V14.01,2013-12-02 00:27:00,
2013-12-01 19:32:00,39.4,15.9,29.21,NW,314,0.0,0.0,38,0.00,,---,0.12,VWS V14.01,2013-12-02 00:32:00,
2013-12-01 19:37:00,39.4,15.9,29.21,NW,314,0.0,0.0,38,0.00,,---,0.12,VWS V14.01,2013-12-02 00:37:00,
2013-12-01 19:42:00,39.2,15.7,29.21,NW,313,0.0,0.0,38,0.00,,---,0.12,VWS V14.01,2013-12-02 00:42:00,
2013-12-01 19:47:00,39.2,15.7,29.21,NW,314,0.0,0.0,38,0.00,,---,0.12,VWS V14.01,2013-12-02 00:47:00,
2013-12-01 19:52:00,39.2,15.7,29.21,NW,314,0.0,0.0,38,0.00,,---,0.12,VWS V14.01,2013-12-02 00:52:00,
2013-12-01 19:57:00,39.2,15.7,29.21,NW,315,0.0,0.0,38,0.00,,---,0.12,VWS V14.01,2013-12-02 00:57:00,
2013-12-01 20:02:00,39.4,15.9,29.21,NW,314,0.0,0.0,38,0.00,,---,0.12,VWS V14.01,2013-12-02 01:02:00,
2013-12-01 20:07:00,39.4,15.9,29.21,NW,315,0.0,0.0,38,0.00,,---,0.12,VWS V14.01,2013-12-02 01:07:00,
2013-12-01 20:12:00,39.4,15.9,29.21,NW,313,0.0,0.0,38,0.00,,---,0.12,VWS V14.01,2013-12-02 01:12:00,
2013-12-01 20:17:00,39.4,15.9,29.21,NW,315,0.0,0.0,38,0.00,,---,0.12,VWS V14.01,2013-12-02 01:17:00,
2013-12-01 20:22:00,39.4,15.9,29.21,NW,315,0.0,0.0,38,0.00,,---,0.12,VWS V14.01,2013-12-02 01:22:00,
2013-12-01 20:27:00,39.2,15.7,29.21,NW,314,0.0,0.0,38,0.00,,---,0.12,VWS V14.01,2013-12-02 01:27:00,
2013-12-01 20:32:00,39.0,15.6,29.21,NW,314,0.0,0.0,38,0.00,,---,0.12,VWS V14.01,2013-12-02 01:32:00,
2013-12-01 20:37:00,38.8,15.4,29.21,NW,315,0.0,0.0,38,0.00,,---,0.12,VWS V14.01,2013-12-02 01:37:00,
2013-12-01 20:42:00,38.8,15.4,29.21,NW,315,0.0,0.0,38,0.00,,---,0.12,VWS V14.01,2013-12-02 01:42:00,
2013-12-01 20:47:00,38.7,15.3,29.21,NW,315,0.0,0.0,38,0.00,,---,0.12,VWS V14.01,2013-12-02 01:47:00,
2013-12-01 20:52:00,38.7,15.9,29.21,NW,314,0.0,0.0,39,0.00,,---,0.12,VWS V14.01,2013-12-02 01:52:00,
2013-12-01 20:57:00,38.5,15.7,29.18,NW,314,0.0,0.0,39,0.00,,---,0.12,VWS V14.01,2013-12-02 01:57:00,
2013-12-01 21:02:00,38.3,15.5,29.18,NW,316,0.0,0.0,39,0.00,,---,0.12,VWS V14.01,2013-12-02 02:02:00,
2013-12-01 21:07:00,37.9,15.8,29.18,NW,316,0.0,0.0,40,0.00,,---,0.12,VWS V14.01,2013-12-02 02:07:00,
2013-12-01 21:12:00,37.8,15.6,29.21,NW,316,0.0,0.0,40,0.00,,---,0.12,VWS V14.01,2013-12-02 02:12:00,
2013-12-01 21:17:00,37.8,15.6,29.21,NW,316,0.0,0.0,40,0.00,,---,0.12,VWS V14.01,2013-12-02 02:17:00,
2013-12-01 21:22:00,37.6,15.5,29.21,NW,316,0.0,0.0,40,0.00,,---,0.12,VWS V14.01,2013-12-02 02:22:00,
2013-12-01 21:27:00,37.8,15.6,29.18,NW,315,0.0,0.0,40,0.00,,---,0.12,VWS V14.01,2013-12-02 02:27:00,
2013-12-01 21:32:00,37.8,15.6,29.18,NW,314,0.0,0.0,40,0.00,,---,0.12,VWS V14.01,2013-12-02 02:32:00,
2013-12-01 21:37:00,37.8,15.6,29.18,NW,315,0.0,0.0,40,0.00,,---,0.12,VWS V14.01,2013-12-02 02:37:00,
2013-12-01 21:42:00,37.6,15.5,29.21,NW,316,0.0,0.0,40,0.00,,---,0.12,VWS V14.01,2013-12-02 02:42:00,
2013-12-01 21:47:00,37.6,15.5,29.21,NW,315,0.0,0.0,40,0.00,,---,0.12,VWS V14.01,2013-12-02 02:47:00,
2013-12-01 21:52:00,37.4,15.3,29.21,NW,315,0.0,0.0,40,0.00,,---,0.12,VWS V14.01,2013-12-02 02:52:00,
2013-12-01 21:58:00,37.6,15.5,29.18,NW,314,0.0,0.0,40,0.00,,---,0.12,VWS V14.01,2013-12-02 02:58:00,
2013-12-01 22:03:00,37.6,14.9,29.18,NW,315,0.0,0.0,39,0.00,,---,0.12,VWS V14.01,2013-12-02 03:03:00,
2013-12-01 22:08:00,37.4,14.7,29.18,NW,314,0.0,0.0,39,0.00,,---,0.12,VWS V14.01,2013-12-02 03:08:00,
2013-12-01 22:13:00,37.4,14.7,29.18,NW,316,0.0,0.0,39,0.00,,---,0.12,VWS V14.01,2013-12-02 03:13:00,
2013-12-01 22:19:00,37.0,14.4,29.18,NW,316,0.0,0.0,39,0.00,,---,0.12,VWS V14.01,2013-12-02 03:19:00,
2013-12-01 22:24:00,36.9,14.2,29.18,NW,315,0.0,0.0,39,0.00,,---,0.12,VWS V14.01,2013-12-02 03:24:00,
2013-12-01 22:29:00,36.3,14.3,29.18,NW,316,0.0,0.0,40,0.00,,---,0.12,VWS V14.01,2013-12-02 03:29:00,
2013-12-01 22:34:00,36.1,14.2,29.18,NW,317,0.0,0.0,40,0.00,,---,0.12,VWS V14.01,2013-12-02 03:34:00,
2013-12-01 22:39:00,36.0,14.0,29.18,NW,317,0.0,0.0,40,0.00,,---,0.12,VWS V14.01,2013-12-02 03:39:00,
2013-12-01 22:44:00,35.8,13.8,29.18,NW,316,0.0,0.0,40,0.00,,---,0.12,VWS V14.01,2013-12-02 03:44:00,
2013-12-01 22:49:00,35.8,13.8,29.18,NW,315,0.0,0.0,40,0.00,,---,0.12,VWS V14.01,2013-12-02 03:49:00,
2013-12-01 22:54:00,35.8,14.4,29.18,NW,315,0.0,0.0,41,0.00,,---,0.12,VWS V14.01,2013-12-02 03:54:00,
2013-12-01 22:59:00,36.0,14.6,29.18,NW,314,0.0,0.0,41,0.00,,---,0.12,VWS V14.01,2013-12-02 03:59:00,
2013-12-01 23:04:00,36.0,14.6,29.18,NW,315,0.0,0.0,41,0.00,,---,0.12,VWS V14.01,2013-12-02 04:04:00,
2013-12-01 23:09:00,36.0,14.6,29.18,NW,316,0.0,0.0,41,0.00,,---,0.12,VWS V14.01,2013-12-02 04:09:00,
2013-12-01 23:14:00,36.0,14.6,29.18,NW,316,0.0,0.0,41,0.00,,---,0.12,VWS V14.01,2013-12-02 04:14:00,
2013-12-01 23:19:00,36.1,15.3,29.18,NW,314,0.0,0.0,42,0.00,,---,0.12,VWS V14.01,2013-12-02 04:19:00,
2013-12-01 23:24:00,36.3,15.4,29.18,NW,315,0.0,0.0,42,0.00,,---,0.12,VWS V14.01,2013-12-02 04:24:00,
2013-12-01 23:29:00,36.3,15.4,29.18,NW,315,0.0,0.0,42,0.00,,---,0.12,VWS V14.01,2013-12-02 04:29:00,
2013-12-01 23:34:00,36.7,15.2,29.18,NW,315,0.0,0.0,41,0.00,,---,0.12,VWS V14.01,2013-12-02 04:34:00,
2013-12-01 23:39:00,36.7,14.6,29.18,NW,314,0.0,0.0,40,0.00,,---,0.12,VWS V14.01,2013-12-02 04:39:00,
2013-12-01 23:44:00,36.7,14.6,29.18,NW,315,0.0,0.0,40,0.00,,---,0.12,VWS V14.01,2013-12-02 04:44:00,
2013-12-01 23:49:00,36.7,14.6,29.18,NW,316,0.0,0.0,40,0.00,,---,0.12,VWS V14.01,2013-12-02 04:49:00,
2013-12-01 23:54:00,36.5,14.5,29.18,NW,316,0.0,0.0,40,0.00,,---,0.12,VWS V14.01,2013-12-02 04:54:00,
2013-12-01 23:59:00,36.3,14.3,29.18,NW,316,0.0,0.0,40,0.00,,---,0.12,VWS V14.01,2013-12-02 04:59:00,